User: anonymous   Login
Location: Bismarck
(46.7731°N, 100.8200°W)
Time: 16:31:52
(UTC-06:00)
Language:

Cosmos 2219 Rocket - Orbit

View from above orbital plane
View from above orbital plane
View from above satellite
View from above satellite

Ground track
Ground track

The orbit data is extracted from the following two-line orbital elements,

1 22220U 92076B   17352.14757340  .00000116  00000-0  82125-4 0  9991
2 22220  71.0008  32.0204 0013445 342.2782  48.6506 14.16426403296829
Epoch (UTC): 18 December 2017 03:32:30
Eccentricity: 0.0013445
inclination: 71.0008°
perigee height: 828 km
apogee height: 847 km
right ascension of ascending node: 32.0204°
argument of perigee: 342.2782°
revolutions per day: 14.16426403
mean anomaly at epoch: 48.6506°
orbit number at epoch: 29682

The dashed part of the orbit path shows where the satellite is in the earth's shadow,  

DLR